Location: *
(57.8420°S, 159.8600°W)
Time: 04:01:13
(UTC+00:00)

USA 234 - Pass Details

Date: 18 May 2021
Orbit: 1102 x 1105 km, 123.0° (Epoch: 18 April)

Event Time Altitude Azimuth Distance (km) Brightness Sun altitude
Exits shadow 06:39:55 52° 335° (NNW) 1,369 3.7 -32.9°
Drops below altitude 10° 06:45:02 10° 303° (WNW) 2,983 5.9 -33.5°
Sets 06:47:34 0° 299° (WNW) 3,938 6.7 -33.8°
